Regional Weather Roundup
Issued by NWS

Home | Current Version | Previous Version | Text Only | Print | Product List | Glossary Off
Versions: 1 2 3 4 5 6 7 8 9 10 11 12 13 14 15 16 17 18 19 20 21 22 23 24 25 26 27 28 29 30 31 32 33 34 35 36 37 38 39 40 41 42 43 44 45 46 47 48 49 50

000
ASUS43 KMKX 211711
RWRWI

WISCONSIN REGIONAL WEATHER ROUNDUP
NATIONAL WEATHER SERVICE MILWAUKEE/SULLIVAN WI
1200 PM CDT THU AUG 21 2014

NOTE: "FAIR" INDICATES FEW OR NO CLOUDS BELOW 12,000 FEET WITH NO
SIGNIFICANT WEATHER AND/OR OBSTRUCTIONS TO VISIBILITY.

WIZ001-002-006>008-014>016-023>028-211800-
NORTHWEST WISCONSIN

CITY           SKY/WX    TMP DP  RH WIND       PRES   REMARKS
SUPERIOR ARPT  CLOUDY    62  61  97 NE13      29.87F
ASHLAND        CLOUDY    70  64  81 NE8       29.90F
HAYWARD        CLOUDY    69  67  93 VRB3      29.86F
SIREN          CLOUDY    72  67  85 SE6       29.84S
RICE LAKE      CLOUDY    72  67  84 SE12      29.86F
LADYSMITH      CLOUDY    70  68  93 SE12      29.89S
EAU CLAIRE     PTSUNNY   74  69  85 E9        29.84F
MENOMONIE      CLOUDY    73  69  87 E9G18     29.84F
NEW RICHMOND   CLOUDY    74  71  88 SE9       29.82F
OSCEOLA        CLOUDY    74  71  90 E10       29.83S
$$

WIZ003>005-009-010-017-018-211800-
NORTH CENTRAL WISCONSIN

CITY           SKY/WX    TMP DP  RH WIND       PRES   REMARKS
WOODRUFF       CLOUDY    69  65  84 SE7       29.95S
RHINELANDER    CLOUDY    67  63  87 SE10      29.97S
EAGLE RIVER    CLOUDY    68  63  84 SE6       29.96S
LAND O LAKES   CLOUDY    69  62  78 S8        29.97R
PHILLIPS       LGT RAIN  64  64  97 SE7       29.91F
TOMAHAWK       DRIZZLE   64  63  96 SE6       29.95F
MEDFORD        CLOUDY    65  64  99 SE7       29.92F
MERRILL        LGT RAIN  66  65  99 SE8       29.94F
$$

WIZ029-030-035-036-043>047-211800-
CENTRAL WISCONSIN

CITY           SKY/WX    TMP DP  RH WIND       PRES   REMARKS
WAUSAU         LGT RAIN  65  64  97 SE8       29.93F FOG
MOSINEE        LGT RAIN  64  64 100 SE7       29.95F
MARSHFIELD     CLOUDY    69  66  90 SE13      29.91F
STEVENS POINT  LGT RAIN  64  64  97 SE6       29.96F
WAUPACA        RAIN      69  67  93 SE5       29.97F
WAUTOMA        LGT RAIN  67  67 100 E8        29.94F FOG
WISC RAPIDS    CLOUDY    68  66  93 E6        29.94F
CAMP DOUGLAS   CLOUDY    68  68 100 E8        29.89F
$$

WIZ011>013-019>022-031-037>040-048>050-211800-
NORTHEAST WISCONSIN

CITY           SKY/WX    TMP DP  RH WIND       PRES   REMARKS
ANTIGO         DRIZZLE   64  63  96 SE10      29.98F
STURGEON BAY   CLOUDY    66  61  82 SE7       29.99S
GREEN BAY      LGT RAIN  69  63  81 SE6       29.97S
MANITOWOC      CLOUDY    67  63  87 SE6       29.97S
APPLETON       LGT RAIN  68  63  83 SE5       29.98R
CLINTONVILLE   RAIN      66  63  88 CALM      29.97R
OSHKOSH        RAIN      69  68  96 CALM      29.98R FOG
$$

WIZ032>034-041-042-053>061-211800-
SOUTHWEST WISCONSIN

CITY           SKY/WX    TMP DP  RH WIND       PRES   REMARKS
LA CROSSE      CLOUDY    76  69  79 S7        29.84R
SPARTA         CLOUDY    73  69  87 E7        29.86R
VIROQUA        FAIR      71  71  99 SE10      29.86R
BOSCOBEL       LGT RAIN  72  69  90 SW6       29.90F
PRAIRIE DU CHI LGT RAIN  71  69  93 E13       29.87F
PLATTEVILLE    FAIR      74  72  93 S8        29.94S
$$

WIZ056-057-062-063-064-067-068-211800-
SOUTH CENTRAL WISCONSIN

CITY           SKY/WX    TMP DP  RH WIND       PRES   REMARKS
BARABOO/DELLS  LGT RAIN  68  66  93 SE12      29.89F
LONE ROCK      LGT RAIN  74  69  85 S14       29.88F
WATERTOWN      LGT RAIN  69  69 100 W6        30.00R
MADISON        LGT RAIN  70  69  97 SE3       29.96F
MIDDLETON      CLOUDY    71  71 100 E3        29.97F
MONROE         TSTM      72  70  94 S6        29.94F
JANESVILLE     TSTM      72  70  94 CALM      29.98R FOG
$$

WIZ051-052-058>065-066-070>072-211800-
SOUTHEAST WISCONSIN

CITY           SKY/WX    TMP DP  RH WIND       PRES   REMARKS
MILWAUKEE      LGT RAIN  71  67  87 E7        29.94S
WAUKESHA       LGT RAIN  70  66  88 E5        29.95S
MILWAUKEE/TIMM CLOUDY    70  64  83 E6        29.95S
RACINE         CLOUDY    74  68  81 S6        29.96S
BURLINGTON     LGT RAIN  71  69  93 S6        29.96R
KENOSHA        CLOUDY    76  70  82 S8        29.94F
FOND DU LAC    LGT RAIN  70  67  90 N3        29.98R
SHEBOYGAN      CLOUDY    69  63  81 SE3       29.97R
WEST BEND      RAIN      66  63  88 E5        29.96R
JUNEAU         TSTM      69  42  37 W5        30.04R VSB 1
$$

LSZ147-162-211800-
LAKE SUPERIOR

STATION/POSITION TIME  TEMP    WIND        PRES    WAVE
                       AIR SEA DIR/SP/G            HT/PER
                 (UTC) (F)     (DEG/KT/KT) (MB)    (FT/S)
W MID LAKE BUOY  1650   59 59   60/ 12/ 14 1013.5F   1
PORT WING        1600   68      50/  5/  7 1012.2R
SAXON HARBOR     1600   68      40/  6/  8 1012.5
$$

LMZ867-665-643>646-211800-
LAKE MICHIGAN

STATION/POSITION TIME  TEMP    WIND        PRES    WAVE
                       AIR SEA DIR/SP/G            HT/PER
                 (UTC) (F)     (DEG/KT/KT) (MB)    (FT/S)
N MID LAKE BUOY  1650   64 64  160/  6/  6 1014.9R   0
NORTHPORT PIER   1600   66     120/  5/  7 1014.9S
SISTER BAY       1626   71     140/ 10/ 12   N/A
KEWAUNEE LAKESHO 1600   65     140/  4/  7 1014.4R
SHEBOYGAN LAKESH 1700   67 65  100/  1/  1 1014.8R
ATWATER BUOY     1700   68     120/  4/  6 1015.1S
MILWAUKEE LAKESH 1600   69     100/  3/  3   N/A
S MID LAKE BUOY  1650   69 69  120/  2/  4 1013.8R   0
KENOSHA   LAKESH 1700   71     160/  8/  9 1013.5F
$$

TC  - TEMPERATURE IN CELSIUS
VSB - VISIBILITY IN STATUTE MILES
WCI - WIND CHILL INDEX
HX  - HEAT INDEX




USA.gov is the U.S. government's official web portal to all federal, state and local government web resources and services.